STARLINK-33755, 63579

Orbit data source: Space-Track

STARLINK-33755, 63579 is a payload satellite owned by SpaceX/Seattle (US) in LEO that was launched on Mon, 14 Apr 2025 UTC via an FALCON 9 launch vehicle from the Air Force Eastern Test Range (AFETR). Payload-class satellites include a variety of spacecraft equipped with specific instruments for various scientific and technological missions. These include communications satellites like Starlink; space stations such as the ISS; scientific satellites like the Hubble; Earth observation satellites from companies like Planet Labs, Umbra, and HawkEye 360; GPS; miniature CubeSats for education and research; and military/defense satellites.

Loading next visibility...
Identifier
63579, 2025-076L
Orbit
LEO
Last TLE update
9 hours ago
Origin
Manufacturer
SpaceX/Seattle
Mission
Operational Commercial Communications
Bus & Motor
STARLINK V2MO, Unknown motor
Mass
575 kg wet, ~530 kg dry
Launch date (UTC)
2025-04-14 (3 months ago)
Launch vehicle
FALCON 9
Launch site
Air Force Eastern Test Range (AFETR)
Object type
Payload
Rocket body
Debris
Shape & HBR
Box + 1 Pan, 29 m
Radar Cross Section
41.120 m², Large (>1 m²)

Expand to show TLE details & history

TLE from 9 hours ago
0 STARLINK-33755
1 63579U 25076L   25182.03425691  .00009663  00000-0  36011-3 0  9996
2 63579  43.0016 302.7708 0001399 268.8149  91.2543 15.27588432 13343
Epoch: 2025-07-01T00:49Z
TLE epoch observation values (Epoch: 2025-07-01T00:49:19.797Z)
Latitude
0.00004°
Longitude
11.10285°
Altitude
482.821 km
Speed
7.626 km/s
True Right ascension
20h 11m 05s
True Declination
0° 00' 00"
Sunlit
Object was in full shadow at epoch
Visualization orbit readout
Latitude
1.59075°
Longitude
10.58089°
Altitude
482.601 km
Speed
7.626 km/s
Apparent Right ascension
17h 24m 07s
Apparent Declination
-49° 54' 32"
Sunlit
Object is in full shadow
Visualization observer readout
Local Sidereal Time
21:53:17
Azimuth
218.521° SW
Elevation
-17.469°
Doppler factor
1
Orbital elements
Apogee altitude
485.929 km
Perigee altitude
484.009 km
Semi-major axis
6,863.106 km
Eccentricity
0.00014
Inclination
43.0016°
RAAN
302.7708°
Arg. of periapsis
268.8149°
True anomaly
Unknown
Mean anomaly
91.2543°
Eccentric anomaly
Unknown
Mean motion
3.81735 °/min
Orbital period
94.31 mins
BSTAR
0.00036011
Loading maneuver chart data...
Loading SW <> Apogee altitude chart data...
Loading historical data...
Loading historical data...
Loading historical data...
Loading historical data...
Loading historical data...
Loading historical data...
Loading historical data...

STARLINK-33755 Visibility forecast

Observer location: undefined°, undefined°

Span
Click to sort rows by Start time (UTC) header in descending order
Start Az.
Max El. time (UTC)
Max El. Az.
Max El.
End time (UTC)
End Az.
6 mins2025-07-01 12:02:52.119Z233.156° WSW2025-07-01 12:04:52.119Z192.833° SSW40.227°2025-07-01 12:08:52.119Z75.498° E
6 mins2025-07-01 13:41:52.119Z280.569° WNW2025-07-01 13:43:52.119Z324.066° NNW37.806°2025-07-01 13:47:52.119Z72.282° E
6 mins2025-07-01 15:20:52.119Z292.482° WNW2025-07-01 15:23:52.119Z45.105° ENE40.826°2025-07-01 15:26:52.119Z93.326° ESE
6 mins2025-07-01 16:59:52.119Z272.739° WNW2025-07-01 17:02:52.119Z187.018° SSW32.242°2025-07-01 17:05:52.119Z137.662° SSE
|